Location: Borowce
(50.8255°N, 19.6209°E)
Time: 06:48:36
(UTC+00:00)

Cosmos 1666 Rocket - Pass Details

Date: 19 May 2025
Orbit: 599 x 625 km, 82.5° (Epoch: 16 June)

Event Time Altitude Azimuth Distance (km) Brightness Sun altitude
Rises 22:16:48 0° 354° (N) 2,880 8.7 -19.0°
Reaches altitude 10° 22:19:06 10° 1° (N) 1,975 7.4 -19.1°
Maximum altitude 22:23:17 44° 74° (ENE) 860 4.3 -19.1°
Enters shadow 22:24:58 30° 125° (SE) 1,120 4.5 -19.1°
